User: anonymous   Login
Location: Barcelona
(41.3830°N, 2.1830°E)
Time: 18:17:01
(UTC+02:00)
Language:

SPROUT - Orbit

View from above orbital plane
View from above orbital plane
View from above satellite
View from above satellite

Ground track
Ground track

The orbit data is extracted from the following two-line orbital elements,

1 39770U 14029E   19292.53922926  .00000612  00000-0  73688-4 0  9998
2 39770  97.8893  35.0744 0009921  47.2295 312.9755 14.87462369293090
Epoch (UTC): 19 October 2019 12:56:29
Eccentricity: 0.0009921
inclination: 97.8893°
perigee height: 599 km
apogee height: 613 km
right ascension of ascending node: 35.0744°
argument of perigee: 47.2295°
revolutions per day: 14.87462369
mean anomaly at epoch: 312.9755°
orbit number at epoch: 29309

The dashed part of the orbit path shows where the satellite is in the earth's shadow,  

DLR